SCP
3 4 5 6 7 6 6 5 5 5 6 6 7 7 6 5 4 3 3 2 2 2 1 1 1 1 1 1 1 2 2 2 2 1 1 1 1 1 1 1 1 0 0
4 4 5 5 6 6 6 6 6 5 5 5 6 6 6 5 5 4 3 2 2 2 2 2 2 2 2 2 2 2 2 2 2 1 1 1 1 1 1 1 1 0 0
4 4 5 5 5 5 6 6 6 5 5 5 5 4 4 5 6 6 4 3 3 2 2 2 2 2 2 2 2 2 2 2 2 2 1 1 1 1 1 1 1 1 1
4 4 4 4 4 5 6 6 6 6 6 6 5 4 3 4 5 6 5 4 3 3 3 3 2 3 2 2 2 2 2 2 2 2 2 1 1 1 1 1 1 1 1
3 4 4 3 3 4 5 6 6 7 8 7 6 5 4 4 4 5 5 4 4 3 3 3 2 2 2 2 2 2 2 2 2 2 2 2 2 1 1 1 1 1 1
3 4 4 3 3 3 4 5 5 7 9 9 9 7 6 5 5 5 5 5 4 3 2 2 2 2 2 2 2 2 2 2 2 2 2 2 2 1 1 1 1 1 1
3 4 4 3 3 3 3 3 4 6 8 9 9 9 7 7 6 6 6 6 5 4 3 2 2 2 2 2 2 2 2 2 2 2 2 2 2 2 2 1 1 1 1
2 3 4 4 3 3 3 4 4 5 6 8 9 9 8 7 6 7 8 8 7 6 4 3 2 2 2 2 2 2 2 2 2 2 2 3 3 2 2 2 1 1 1
3 3 3 3 3 2 3 5 6 6 6 7 8 8 7 6 6 7 8 8 7 6 5 3 2 2 2 2 2 2 2 2 2 2 3 3 3 2 2 2 2 1 1
3 3 2 2 2 2 3 4 6 7 6 6 6 6 6 5 5 6 7 7 6 6 6 4 3 2 2 2 2 2 2 2 2 3 3 3 3 2 2 2 1 1 1
3 3 3 2 2 1 2 3 5 6 6 6 5 5 5 5 5 5 6 5 5 6 7 6 3 2 2 2 2 2 2 2 2 3 3 2 2 2 2 2 1 1 1
2 3 3 2 1 1 2 3 3 4 5 5 4 4 4 4 5 5 5 5 5 7 8 6 3 2 2 2 2 2 1 2 2 2 2 2 2 2 2 2 1 1 1
2 2 2 2 1 1 2 2 3 3 4 5 4 3 3 4 4 4 4 5 6 7 7 5 3 2 2 2 1 1 1 1 2 2 2 2 2 2 2 2 2 1 1
1 2 2 1 1 1 1 2 2 3 4 6 5 4 3 3 4 4 5 5 6 6 5 4 3 2 2 1 1 1 1 1 1 1 1 2 1 2 2 2 2 2 1
2 2 1 1 0 1 1 2 2 2 4 7 7 5 4 4 4 5 5 6 6 5 4 4 3 2 2 1 1 1 1 1 1 1 1 1 1 1 2 2 2 2 1
2 2 1 1 1 1 1 2 2 2 4 7 8 7 5 4 4 4 5 6 6 5 5 4 3 2 1 1 0 0 1 1 1 1 1 1 1 1 1 1 1 1 1
2 1 1 1 1 1 2 2 1 1 3 5 7 7 5 4 3 4 4 5 5 5 5 5 4 2 1 0 0 0 0 1 1 1 2 2 2 1 1 1 1 1 1
1 1 1 1 1 1 2 1 1 1 1 2 4 5 5 3 3 3 3 4 5 5 6 5 4 2 1 0 0 0 0 1 2 2 2 2 2 1 1 1 1 1 0
1 1 1 1 1 1 1 1 1 1 1 1 2 3 3 3 2 2 2 3 4 5 5 5 4 3 1 0 0 0 0 1 2 2 2 2 2 1 0 1 1 1 0
1 1 1 1 1 1 1 1 1 1 1 1 1 1 2 3 2 2 2 2 3 4 4 4 4 3 1 0 0 0 0 1 2 2 2 1 1 0 0 0 0 0 0
1 1 1 1 1 1 1 1 1 1 1 1 1 1 1 2 2 2 2 2 2 3 3 3 3 2 1 1 0 0 0 1 1 2 2 1 1 0 0 0 0 0 0
1 1 1 1 1 1 1 1 1 1 1 1 1 1 1 1 2 3 3 2 2 2 2 2 2 2 1 1 0 0 0 0 1 1 2 1 1 0 0 0 0 0 0
0 0 0 1 1 1 1 1 1 1 1 1 1 1 1 1 1 2 2 2 2 2 2 2 2 1 1 1 0 0 0 0 0 1 1 1 0 0 0 0 0 0 0
0 0 0 0 1 1 1 1 1 0 0 1 1 1 1 1 1 1 2 1 1 1 1 1 1 1 1 0 0 0 0 0 0 0 0 0 0 0 0 0 0 1 1
1 0 0 0 1 1 1 0 0 0 0 1 1 1 1 1 1 1 1 1 1 1 1 1 1 1 0 0 0 0 0 0 0 0 0 0 0 0 1 1 1 1 1
1 1 0 1 1 1 0 0 0 0 0 1 1 1 0 0 0 0 0 1 1 1 1 1 1 1 0 0 0 0 0 0 0 0 0 0 0 0 1 1 1 1 1
Wind_Speed
4 4 5 6 6 6 7 7 7 7 6 5 5 4 4 3 3 3 4 4 3 3 3 2 2 3 2 2 3 3 3 2 2 4 4 4 4 3 3 3 4 4 4
4 4 5 6 6 7 6 7 7 7 6 5 4 3 3 3 3 3 3 4 4 4 4 3 3 3 2 3 3 3 3 2 2 4 4 4 3 3 3 3 3 4 4
3 4 5 5 6 6 6 6 6 7 6 6 4 4 3 3 3 4 4 4 4 4 3 3 3 3 3 2 2 3 4 3 3 3 4 4 4 4 2 3 3 3 4
3 4 5 5 5 5 6 6 6 6 6 6 5 5 4 4 4 3 3 3 3 3 3 3 3 2 2 2 3 2 3 4 4 2 3 5 5 5 4 3 3 4 4
3 4 4 4 4 4 5 5 6 6 6 5 5 5 4 3 3 2 3 3 3 3 3 2 2 2 2 2 2 3 4 3 4 4 3 4 4 6 6 6 5 5 4
4 3 4 4 4 4 4 5 6 6 6 6 5 5 4 4 4 4 4 3 3 3 3 2 2 2 2 2 3 3 4 3 4 4 4 4 4 4 5 6 7 6 5
4 3 3 4 4 4 4 5 5 5 6 6 5 5 5 5 5 4 4 3 2 2 3 2 2 2 2 2 2 3 4 4 4 4 4 4 5 5 5 6 7 7 6
4 3 3 3 3 3 4 4 5 5 5 5 5 5 5 3 3 3 2 3 2 2 2 2 2 2 2 2 2 3 3 3 4 5 5 5 5 5 5 5 6 7 7
3 3 3 3 2 2 3 3 4 4 4 4 4 4 4 3 2 3 3 2 1 1 2 2 2 2 2 2 3 3 3 3 4 5 5 5 5 5 5 5 6 6 7
2 2 2 2 2 2 2 3 3 3 3 4 3 3 3 3 3 3 2 2 2 1 1 1 1 2 2 2 3 3 3 4 4 4 5 6 5 5 5 5 6 6 7
1 2 2 2 2 2 3 3 3 3 2 2 3 3 3 3 3 3 2 2 1 1 2 1 2 2 2 2 3 4 4 4 4 5 5 6 6 6 5 5 6 6 6
1 2 2 2 3 3 3 3 3 3 2 2 3 3 3 3 3 2 2 1 1 1 2 2 2 2 2 3 3 4 4 4 5 5 5 6 5 6 6 5 6 6 6
2 2 2 2 2 3 2 2 3 3 2 3 3 3 3 3 3 2 2 1 1 1 2 2 2 2 3 3 4 4 4 5 5 5 6 6 6 7 6 7 6 6 6
2 2 2 2 2 2 2 2 2 3 3 2 3 3 3 3 2 2 2 1 1 1 2 2 2 3 3 3 4 4 5 5 6 5 6 6 6 6 7 6 6 6 7
2 2 2 1 2 2 2 2 2 2 2 2 3 2 2 2 2 2 2 1 1 1 2 2 3 3 3 3 4 5 5 5 6 6 6 6 5 6 6 6 7 7 6
1 1 1 1 1 2 2 2 2 2 3 3 2 2 3 3 2 2 2 1 1 1 2 2 3 3 3 3 4 6 6 6 6 6 6 6 4 5 7 8 8 9 8
1 1 1 1 1 1 2 2 2 3 3 3 2 3 3 3 2 2 2 2 1 1 2 3 3 3 3 2 3 5 6 6 5 6 6 6 5 5 6 6 8 9 10
0 1 1 1 1 2 2 3 3 3 3 3 3 2 3 2 2 2 2 1 1 2 2 3 3 3 2 2 3 6 6 6 6 6 6 6 6 5 6 8 7 7 6
0 2 2 2 2 2 3 3 3 3 3 3 2 2 2 2 2 1 1 1 2 2 2 2 3 4 3 2 4 5 5 4 5 6 5 5 5 4 5 7 7 8 7
1 1 3 3 3 3 3 4 3 3 3 3 3 2 2 2 2 1 1 2 2 3 3 3 3 4 4 2 3 5 5 5 5 5 4 2 3 4 5 7 7 8 8
1 2 3 3 2 3 4 4 4 3 2 2 2 2 2 2 2 2 2 2 3 3 3 3 3 3 3 2 3 4 5 5 6 5 5 3 1 4 6 7 7 8 9
1 2 3 3 3 3 3 4 3 2 3 2 2 2 2 2 1 1 2 2 3 3 3 3 3 2 1 1 1 3 5 7 6 6 5 4 4 7 8 6 6 8 8
1 2 3 4 3 3 3 3 3 3 3 3 2 2 2 1 1 2 2 2 2 3 2 2 3 3 2 1 2 4 5 6 5 5 6 7 8 9 7 5 7 7 5
2 2 3 4 4 3 3 2 3 3 3 3 2 2 2 2 1 1 1 1 2 2 3 3 4 4 3 3 4 4 4 4 4 5 5 7 9 8 6 6 5 4 4
2 2 3 4 4 4 3 3 3 3 3 2 2 2 2 1 1 1 1 2 2 3 4 4 4 5 4 5 7 6 6 6 6 7 5 5 5 5 5 5 4 4 4
2 3 3 3 4 4 3 3 3 3 3 2 2 2 1 1 1 1 1 1 1 0 1 3 4 3 4 6 7 7 7 7 7 6 4 5 5 6 6 6 6 5 5
Wind_Direction
147 148 158 159 157 158 157 161 169 172 172 169 173 176 184 184 186 191 187 199 204 194 210 226 207 240 239 262 265 269 262 275 286 280 274 255 242 256 277 277 287 284 285
146 147 161 160 163 160 158 163 171 170 174 168 177 185 178 185 183 186 184 197 201 207 208 222 227 222 229 234 258 270 279 275 278 290 288 276 238 221 258 273 271 289 291
175 155 157 164 164 159 158 163 170 171 174 169 174 169 169 182 180 188 187 194 198 204 219 215 230 227 233 224 249 269 280 283 275 291 294 294 302 312 244 263 274 284 291
170 157 163 164 163 161 155 156 165 171 168 176 183 186 192 195 189 192 174 174 189 203 210 219 220 231 238 225 244 259 266 272 281 275 277 291 311 298 295 268 269 273 275
153 153 161 158 157 156 156 158 163 169 167 176 181 188 195 193 174 167 161 181 179 193 196 204 210 222 239 243 256 256 268 269 280 286 283 279 270 268 281 293 296 285 274
128 128 135 147 151 156 161 163 163 168 173 180 185 191 188 188 175 174 173 185 172 176 172 193 224 238 258 258 259 262 261 276 282 285 285 283 288 283 279 281 286 293 294
133 133 136 141 147 159 162 164 166 169 174 179 183 189 187 191 189 184 179 184 176 177 170 198 230 256 264 266 277 270 278 273 275 275 279 283 286 288 286 283 286 290 289
133 134 130 132 137 150 156 164 168 168 174 179 180 183 188 196 183 182 197 192 198 179 181 215 228 244 252 267 273 270 269 268 270 274 277 276 277 282 281 282 288 288 288
126 126 121 128 133 135 144 156 158 162 168 177 177 178 183 183 173 178 200 193 189 181 191 233 243 247 253 263 265 272 276 273 268 272 268 272 278 274 276 273 273 281 288
124 123 128 139 122 125 134 141 149 157 160 168 170 161 169 176 183 186 178 179 196 195 218 247 268 269 269 270 270 270 279 280 277 275 278 279 279 280 275 273 274 272 274
138 138 139 134 127 123 127 141 152 152 153 150 145 147 157 164 170 174 174 180 189 208 217 226 248 265 275 273 265 274 274 276 279 277 278 279 281 282 283 281 276 273 272
121 136 133 136 137 133 130 136 151 153 152 144 144 148 149 152 164 161 168 194 198 225 232 239 245 254 265 270 268 270 276 277 280 280 281 286 287 285 281 280 278 278 274
110 124 130 142 142 138 133 130 141 151 150 145 146 139 149 159 167 166 170 185 193 241 254 252 252 265 274 275 276 277 281 280 278 279 282 284 286 286 290 286 285 283 278
129 133 138 151 144 141 142 142 140 146 146 147 145 144 162 167 163 170 170 176 192 237 263 272 279 284 284 285 287 289 288 287 284 283 282 282 284 287 291 287 286 286 284
134 135 138 136 142 144 143 140 142 144 150 154 154 152 159 163 169 175 172 165 207 247 266 274 281 284 284 304 311 299 291 291 289 290 289 288 286 285 281 288 296 294 287
106 106 109 131 159 164 159 153 147 147 157 161 162 154 153 156 169 179 177 186 228 265 275 285 291 293 313 4 321 298 294 291 290 294 297 292 272 274 258 257 267 273 279
176 196 199 165 165 168 170 166 161 159 162 165 163 161 159 156 172 192 186 194 227 257 278 283 290 298 323 329 302 295 285 289 291 291 293 297 311 301 302 287 256 250 243
234 192 186 171 169 159 167 175 166 165 167 168 165 163 163 160 177 203 199 225 254 264 274 287 294 294 310 310 291 295 273 281 285 287 287 291 300 316 318 305 301 294 281
302 174 165 162 157 158 165 164 165 169 169 166 166 173 180 184 190 199 216 242 262 274 278 282 286 290 297 292 286 289 285 285 288 288 290 291 299 330 315 298 298 300 299
45 138 153 152 150 160 160 163 171 175 174 173 174 181 188 200 205 207 250 261 266 274 286 296 294 296 300 296 284 287 286 299 301 299 292 291 297 315 306 297 299 299 305
82 144 146 145 151 154 159 163 162 168 170 170 164 167 182 209 222 232 251 267 279 294 299 301 295 295 302 292 277 286 291 305 305 308 309 334 15 300 292 287 291 297 300
107 135 140 138 139 153 161 158 152 160 167 169 169 177 197 222 207 225 256 275 285 274 275 281 287 292 291 305 288 267 276 295 300 306 315 331 322 297 287 287 294 291 286
119 132 141 135 138 154 164 152 143 156 159 162 172 179 184 214 235 235 247 260 266 280 290 299 318 336 351 359 249 262 268 269 279 304 315 301 286 283 277 262 269 276 282
128 143 152 145 144 152 160 158 153 156 159 165 171 173 180 200 203 250 264 296 308 312 321 332 337 340 340 350 350 332 315 288 286 307 301 266 256 258 275 284 276 279 299
128 139 143 143 143 147 153 154 154 159 167 171 170 184 183 184 216 224 334 320 5 355 325 337 337 338 339 1 346 325 328 331 336 321 303 311 325 326 329 325 319 310 302
133 134 136 139 136 138 146 150 156 165 173 176 181 194 179 173 233 206 140 103 243 154 282 305 310 341 347 333 328 323 312 301 299 301 317 334 338 335 334 331 330 328 324